Terminal Aerodrome Forecast
Issued by NWS Anchorage, AK

Home | Current Version | Previous Version | Text Only | Print | Product List | Glossary On
Versions: 1 2 3 4 5 6 7 8 9 10 11 12 13 14 15 16 17 18 19
000
FTAK31 PANC 302155 AAB
TAFANC
TAF AMD
PANC 302155Z 3022/0124 02012G22KT P6SM VCSH SCT050 BKN080
     FM010300 16010G17KT P6SM VCSH SCT040 BKN080
     FM010800 VRB06KT P6SM VCSH BKN060
     FM012100 17012G20KT P6SM VCSH BKN060=

USA.gov is the U.S. government's official web portal to all federal, state and local government web resources and services.